Weather History for Charlottetown, PE

Change the Weather History Date:

Sunday, February 24, 2013

  Actual Average Record
Temperature  
Mean Temperature 14 °F -  
Max Temperature 25 °F 32 °F 42 °F (2003)
Min Temperature 3 °F 17 °F -2 °F (2005)
Degree Days  
Heating Degree Days 51    
Moisture  
Dew Point 12 °F    
Average Humidity 83    
Maximum Humidity 100    
Minimum Humidity 55    
Precipitation  
Precipitation 0.00 in 0.12 in - ()
Sea Level Pressure  
Sea Level Pressure 30.05 in    
Wind  
Wind Speed 3 mph ()    
Max Wind Speed 13 mph    
Max Gust Speed -    
Visibility 15.0 miles    
Events      
Averages and records for this station are not official NWS values.
T = Trace of Precipitation, MM = Missing Value Source: Averaged Metar Reports

Daily Weather History Graph

Daily Weather History Graph

Search for Another Location

Airport:

Trip Planner

Search our weather history database for the weather conditions in past years. The results will help you decide how hot, cold, wet, or windy it might be!

Date:

Astronomy

Feb. 24, 2013 Rise Set
Actual Time 7:00 AM AST 5:51 PM AST
Civil Twilight 6:29 AM AST 6:22 PM AST
Nautical Twilight 5:55 AM AST 6:57 PM AST
Astronomical Twilight 5:20 AM AST 7:31 PM AST
Moon 4:58 PM AST (2/24) 5:56 AM AST (2/24)
Length of Visible Light 11h 52m
Length of Day
10h 51m
Waxing Gibbous, 98% of the Moon is Illuminated
Feb 24
Waxing Gibbous
Feb 25
Full
Mar 4
Last Quarter
Mar 11
New
Mar 19
First Quarter

Hourly Weather History & Observations

Time (AST) Temp. Windchill Dew Point Humidity Pressure Visibility Wind Dir Wind Speed Gust Speed Precip Events Conditions
12:00 AM 6.8 °F - 5.0 °F 92% 30.21 in 15.0 mi Calm Calm - N/A   Scattered Clouds
1:00 AM 8.6 °F 2.0 °F 6.8 °F 92% 30.18 in 15.0 mi SE 3.5 mph - N/A   Scattered Clouds
2:00 AM 7 °F - 4 °F 82% 30.18 in 15 mi Calm Calm - -   Scattered Clouds
2:00 AM 6.8 °F - 3.2 °F 85% 30.18 in 15.0 mi Calm Calm - N/A   Partly Cloudy
3:00 AM 10.4 °F - 6.8 °F 85% 30.17 in 15.0 mi SSW 2.3 mph - N/A   Mostly Cloudy
5:00 AM 5.0 °F - 1.4 °F 85% 30.15 in 15.0 mi Calm Calm - N/A   Mostly Cloudy
6:00 AM 5.0 °F - 1.4 °F 85% 30.14 in 15.0 mi Calm Calm - N/A   Mostly Cloudy
7:00 AM 10.4 °F - 6.8 °F 85% 30.12 in 15.0 mi East 2.3 mph - N/A   Mostly Cloudy
8:00 AM 14 °F - 12 °F 87% 30.11 in 15 mi SE 3.5 mph - -   Mostly Cloudy
8:00 AM 14.0 °F 8.2 °F 12.2 °F 93% 30.11 in 15.0 mi ESE 3.5 mph - N/A   Mostly Cloudy
8:41 AM 15.8 °F 10.2 °F 14.0 °F 93% 30.09 in 15.0 mi ENE 3.5 mph - N/A   Scattered Clouds
9:00 AM 17.6 °F 9.3 °F 14.0 °F 86% 30.09 in 15.0 mi East 5.8 mph - N/A   Mostly Cloudy
10:00 AM 19.4 °F 10.4 °F 14.0 °F 80% 30.09 in 15.0 mi East 6.9 mph - N/A   Mostly Cloudy
11:00 AM 21.2 °F - 15.8 °F 80% 30.08 in 15.0 mi Variable 2.3 mph - N/A   Mostly Cloudy
12:00 PM 23.0 °F 18.4 °F 15.8 °F 74% 30.05 in 15.0 mi East 3.5 mph - N/A   Mostly Cloudy
1:00 PM 23.0 °F - 15.8 °F 74% 30.03 in 15.0 mi Calm Calm - N/A   Mostly Cloudy
2:00 PM 25 °F - 15 °F 55% 30.01 in 15 mi East 3.5 mph - -   Scattered Clouds
2:00 PM 24.8 °F 20.5 °F 15.8 °F 69% 30.01 in 15.0 mi NE 3.5 mph - N/A   Mostly Cloudy
3:00 PM 24.8 °F 16.1 °F 17.6 °F 74% 29.98 in 15.0 mi NNE 8.1 mph - N/A   Mostly Cloudy
4:00 PM 23.0 °F 13.9 °F 15.8 °F 74% 29.96 in 15.0 mi NE 8.1 mph - N/A   Mostly Cloudy
5:00 PM 21.2 °F 9.5 °F 15.8 °F 80% 29.94 in 15.0 mi North 11.5 mph - N/A   Mostly Cloudy
6:00 PM 19.4 °F 7.9 °F 15.8 °F 86% 29.94 in 15.0 mi NNE 10.4 mph - N/A   Mostly Cloudy
7:00 PM 17.6 °F 4.3 °F 14.0 °F 86% 29.93 in 15.0 mi NNE 12.7 mph - N/A   Mostly Cloudy
8:00 PM 17 °F - 14 °F 83% 29.92 in 15 mi NE 11.5 mph - -   Scattered Clouds
8:00 PM 17.6 °F 5.7 °F 14.0 °F 86% 29.92 in 15.0 mi NE 10.4 mph - N/A   Mostly Cloudy
9:00 PM 15.8 °F 7.2 °F 14.0 °F 93% 29.93 in 15.0 mi NNE 5.8 mph - N/A   Mostly Cloudy
10:00 PM 15.8 °F 5.1 °F 14.0 °F 93% 29.89 in 15.0 mi NNE 8.1 mph - N/A   Mostly Cloudy
11:00 PM 15.8 °F 4.2 °F 15.8 °F 100% 29.88 in 15.0 mi NNE 9.2 mph - N/A   Mostly Cloudy